EW5562 Weather Reports


time (UTC)temp
F
wind
direction
speed
knots
gust
knots
rain 1hr
in
rain 24hr
in
rain mn
in
humidity
%
barometer
mb
20260506201610 62 76 0.9 5.2 0.00 0.00 0.00 59 1012.6
20260506194609 64 66 2.6 3.5 0.00 0.00 0.00 54 1012.4
20260506191609 65 130 3.5 4.3 0.00 0.00 0.00 54 1012.0
20260506184621 66 30 3.5 4.3 0.00 0.00 0.00 53 1011.4
20260506181612 73 223 6.1 9.6 0.00 0.00 0.00 38 1010.6
20260506181607 69 14 2.6 8.7 0.00 0.00 0.00 45 1011.0
20260506171606 72 216 1.7 14.8 0.00 0.00 0.00 41 1010.5
20260506164606 75 213 13.0 19.1 0.00 0.00 0.00 38 1010.3
20260506161608 76 182 12.2 18.2 0.00 0.00 0.00 37 1010.2
20260506154606 78 216 11.3 15.6 0.00 0.00 0.00 36 1010.1
20260506151605 79 221 12.2 17.4 0.00 0.00 0.00 31 1010.2
20260506144605 81 202 14.8 19.1 0.00 0.00 0.00 28 1010.2
20260506141604 83 216 7.0 11.3 0.00 0.00 0.00 23 1010.2
20260506134603 82 117 1.7 6.1 0.00 0.00 0.00 24 1010.3
20260506131603 82 111 2.6 9.6 0.00 0.00 0.00 25 1010.5
20260506121602 81 32 1.7 10.4 0.00 0.00 0.00 28 1010.9
20260506111601 81 92 5.2 9.6 0.00 0.00 0.00 33 1011.5
20260506104601 79 52 4.3 7.8 0.00 0.00 0.00 36 1011.7
20260506101601 78 32 5.2 8.7 0.00 0.00 0.00 37 1011.9
20260506100100 77 80 1.7 7.8 0.00 0.00 0.00 36 1012.2
20260506091605 73 133 1.7 3.5 0.00 0.00 0.00 47 1012.5
20260506091600 74 133 3.5 5.2 0.00 0.00 0.00 44 1012.5
20260506081558 72 147 0.9 3.5 0.00 0.00 0.00 50 1012.6
20260506071557 67 94 1.7 2.6 0.00 0.00 0.00 54 1012.6
20260506061555 62 0 0.0 1.7 0.00 0.00 0.00 67 1012.8
20260506044555 55 331 0.9 1.7 0.00 0.00 0.00 79 1012.2
20260506041555 53 272 0.0 1.7 0.00 0.00 0.00 82 1012.1
20260506034554 52 271 1.7 3.5 0.00 0.00 0.00 84 1012.0
20260506031554 52 272 0.0 3.5 0.00 0.00 0.00 82 1011.7
20260506024553 53 317 0.9 3.5 0.00 0.00 0.00 79 1011.7
20260506021554 53 282 0.9 3.5 0.00 0.00 0.00 79 1011.7
20260506014553 52 345 3.5 4.3 0.00 0.00 0.00 80 1011.8
20260506011552 53 340 1.7 2.6 0.00 0.00 0.00 79 1011.7
20260506004552 54 193 0.9 2.6 0.00 0.00 0.00 78 1011.6
20260506003052 54 158 0.0 2.6 0.00 0.00 0.00 76 1011.7
20260505234550 55 179 0.0 2.6 0.00 0.00 0.00 74 1011.8
20260505233051 55 278 0.0 4.3 0.00 0.00 0.00 72 1011.8
20260505224550 56 333 2.6 3.5 0.00 0.00 0.00 71 1011.9
20260505221549 57 230 1.7 4.3 0.00 0.00 0.00 68 1011.9
20260505214549 56 231 3.5 4.3 0.00 0.00 0.00 70 1011.7
20260505211547 59 1 2.6 5.2 0.00 0.00 0.00 62 1011.7
20260505204546 59 0 3.5 6.1 0.00 0.00 0.00 63 1011.8